User: anonymous   Login
Location: Kaiser
(34.0939°N, 117.4889°W)
Time: 11:38:15
(UTC+00:00)
Language:

ERS-2 - Orbit

View from above orbital plane
View from above orbital plane
View from above satellite
View from above satellite

Ground track
Ground track

The orbit data is extracted from the following two-line orbital elements,

1 23560U 95021A   21022.48817069  .00000855  00000-0  39492-4 0  9992
2 23560  98.5535 212.2837 0004189 133.2055 226.9529 15.23613192375462
Epoch (UTC): 22 January 2021 11:42:57
Eccentricity: 0.0004189
inclination: 98.5535°
perigee height: 492 km
apogee height: 498 km
right ascension of ascending node: 212.2837°
argument of perigee: 133.2055°
revolutions per day: 15.23613192
mean anomaly at epoch: 226.9529°
orbit number at epoch: 37546

The dashed part of the orbit path shows where the satellite is in the earth's shadow,  

DLR